TimeAKDT,TemperatureF,Dew PointF,Humidity,Sea Level PressureIn,VisibilityMPH,Wind Direction,Wind SpeedMPH,Gust SpeedMPH,PrecipitationIn,Events,Conditions,WindDirDegrees,DateUTC
12:53 AM,30.9,17.1,57,29.50,10.0,North,15.0,27.6,N/A,,Clear,10,2012-11-02 08:53:00
1:53 AM,30.9,16.0,54,29.45,10.0,North,11.5,20.7,N/A,,Clear,360,2012-11-02 09:53:00
2:53 AM,30.0,15.1,54,29.43,10.0,NNE,13.8,28.8,N/A,,Clear,20,2012-11-02 10:53:00
3:53 AM,30.0,15.1,54,29.39,10.0,North,12.7,31.1,N/A,,Clear,10,2012-11-02 11:53:00
4:53 AM,30.9,15.1,52,29.37,10.0,North,21.9,31.1,N/A,,Clear,360,2012-11-02 12:53:00
5:53 AM,30.0,16.0,56,29.33,10.0,North,19.6,24.2,N/A,,Clear,360,2012-11-02 13:53:00
6:53 AM,33.1,17.1,52,29.30,10.0,North,17.3,27.6,N/A,,Mostly Cloudy,360,2012-11-02 14:53:00
7:53 AM,35.1,18.0,50,29.27,10.0,North,13.8,21.9,N/A,,Overcast,350,2012-11-02 15:53:00
8:53 AM,37.0,18.0,46,29.24,10.0,North,15.0,27.6,N/A,,Overcast,350,2012-11-02 16:53:00
9:53 AM,41.0,21.9,47,29.21,10.0,North,13.8,26.5,N/A,,Overcast,360,2012-11-02 17:53:00
10:53 AM,41.0,24.1,51,29.19,10.0,NNW,19.6,27.6,N/A,,Overcast,330,2012-11-02 18:53:00
11:53 AM,39.9,27.0,60,29.18,10.0,NNW,23.0,33.4,N/A,,Overcast,340,2012-11-02 19:53:00
12:53 PM,41.0,28.9,62,29.16,10.0,NNW,15.0,27.6,0.00,,Overcast,340,2012-11-02 20:53:00
1:53 PM,39.9,30.0,68,29.16,10.0,NNW,13.8,24.2,N/A,,Overcast,340,2012-11-02 21:53:00
2:53 PM,39.9,30.0,68,29.16,10.0,North,11.5,-,N/A,,Overcast,350,2012-11-02 22:53:00
3:53 PM,36.0,28.0,73,29.19,10.0,North,4.6,-,0.00,Rain,Light Rain,360,2012-11-02 23:53:00
4:53 PM,33.1,28.9,85,29.22,10.0,North,9.2,-,0.01,Rain,Light Rain,350,2012-11-03 00:53:00
5:53 PM,33.1,28.9,85,29.23,10.0,NNE,8.1,-,0.00,,Mostly Cloudy,30,2012-11-03 01:53:00
6:53 PM,33.1,28.9,85,29.24,10.0,North,8.1,-,N/A,,Mostly Cloudy,360,2012-11-03 02:53:00
7:53 PM,33.1,30.0,89,29.26,10.0,North,4.6,-,0.00,Rain,Light Rain,350,2012-11-03 03:53:00
8:15 PM,33.8,30.2,87,29.26,10.0,NNE,3.5,-,0.00,Rain,Light Rain,20,2012-11-03 04:15:00
8:39 PM,33.8,30.2,87,29.26,10.0,NNW,4.6,-,0.00,,Overcast,330,2012-11-03 04:39:00
8:53 PM,34.0,30.9,89,29.28,10.0,NNE,4.6,-,0.00,,Mostly Cloudy,20,2012-11-03 04:53:00
9:19 PM,33.8,30.2,87,29.27,10.0,North,5.8,-,0.00,Rain,Light Rain,10,2012-11-03 05:19:00
9:27 PM,33.8,30.2,87,29.26,10.0,North,9.2,-,0.00,,Overcast,350,2012-11-03 05:27:00
9:53 PM,36.0,33.1,89,29.28,10.0,ENE,5.8,-,0.00,,Mostly Cloudy,70,2012-11-03 05:53:00
10:32 PM,37.4,33.8,87,29.28,10.0,North,8.1,-,0.03,Rain,Light Rain,350,2012-11-03 06:32:00
10:53 PM,36.0,34.0,93,29.28,10.0,NE,4.6,-,0.03,,Overcast,40,2012-11-03 06:53:00
11:53 PM,37.0,35.1,93,29.28,10.0,NNE,3.5,-,0.02,Rain,Light Rain,30,2012-11-03 07:53:00